This is the latest recevied weather packets stored in our database for station/object N5YHM-13. If no packets are shown the sender has not sent any weather packets the latest 10 day(s).
| Time | Temp. | Humidity | Pressure | Rain* | Wind** | Luminosity | Snow |
|---|---|---|---|---|---|---|---|
| 1787606840 | 24.44° C | 99% | 1018.2 hPa | 1.27 mm | - | 8 W/m² | - |
| 1787606538 | 24.44° C | 99% | 1018.2 hPa | 1.78 mm | - | 8 W/m² | - |
| 1787606238 | 24.44° C | 99% | 1018.1 hPa | 3.05 mm | - | 8 W/m² | - |
| 1787605937 | 24.44° C | 99% | 1017.9 hPa | 1.27 mm | - | 8 W/m² | - |
| 1787605636 | 24.44° C | 99% | 1018.2 hPa | 1.78 mm | - | 7 W/m² | - |
| 1787605332 | 24.44° C | 99% | 1017.9 hPa | 3.56 mm | - | 7 W/m² | - |
| 1787605027 | 24.44° C | 99% | 1018 hPa | 1.78 mm | - | 7 W/m² | - |
| 1787604726 | 24.44° C | 99% | 1018.3 hPa | 1.27 mm | - | 6 W/m² | - |
| 1787604421 | 23.89° C | 99% | 1018.2 hPa | 1.78 mm | - | 6 W/m² | - |
| 1787604116 | 23.89° C | 99% | 1018.1 hPa | 3.05 mm | - | 5 W/m² | - |
| 1787603816 | 23.89° C | 99% | 1018.4 hPa | 3.05 mm | - | 4 W/m² | - |
| 1787603511 | 23.89° C | 99% | 1018.1 hPa | 3.05 mm | - | 4 W/m² | - |
| 1787603207 | 23.89° C | 99% | 1018.2 hPa | 3.05 mm | - | 3 W/m² | - |
| 1787602903 | 23.89° C | 99% | 1017.7 hPa | 3.05 mm | - | 3 W/m² | - |
| 1787602598 | 23.89° C | 99% | 1017.5 hPa | 4.32 mm | - | 2 W/m² | - |
| 1787602293 | 23.89° C | 99% | 1017.3 hPa | 4.83 mm | - | 2 W/m² | - |
| 1787601992 | 23.89° C | 99% | 1017.4 hPa | 4.32 mm | - | 2 W/m² | - |
| 1787601681 | 23.89° C | 99% | 1017.7 hPa | 4.83 mm | - | 2 W/m² | - |
| 1787601376 | 23.89° C | 99% | 1017.8 hPa | 4.83 mm | - | 2 W/m² | - |
| 1787601075 | 23.89° C | 99% | 1018 hPa | 4.32 mm | - | 2 W/m² | - |
| 1787600769 | 23.33° C | 99% | 1017.8 hPa | 4.32 mm | - | 2 W/m² | - |
| 1787600460 | 23.89° C | 99% | 1018.1 hPa | 6.1 mm | - | 2 W/m² | - |
| 1787600155 | 23.89° C | 99% | 1018.7 hPa | 6.1 mm | - | 1 W/m² | - |
| 1787599852 | 23.33° C | 99% | 1018.7 hPa | 7.87 mm | - | 1 W/m² | - |
| 1787599548 | 23.33° C | 99% | 1018.6 hPa | 7.87 mm | - | 1 W/m² | - |
* Rain latest hour (hover to see other rain measurements)
** Current wind speed in m/s (hover to see current wind gust speed)